, TX

(GMT )
Ingleside

Weather History for KTFP - September, 2013

Change the Weather History Date:

Tuesday, September 17, 2013

  Actual Average Record
Temperature  
Mean Temperature 84 °F -  
Max Temperature 90 °F - - ()
Min Temperature 79 °F - - ()
Cooling Degree Days 20    
Growing Degree Days 34 (Base 50)    
Moisture  
Dew Point 78 °F    
Average Humidity 80    
Maximum Humidity 96    
Minimum Humidity 62    
Precipitation  
Precipitation 0.02 in - - ()
Sea Level Pressure  
Sea Level Pressure 29.94 in    
Wind  
Wind Speed 9 mph (East)    
Max Wind Speed 18 mph    
Max Gust Speed 25 mph    
Visibility 10 miles    
Events      
Averages and records for this station are not official NWS values.
T = Trace of Precipitation, MM = Missing Value Source: NWS Daily Summary

Daily Weather History Graph

Daily Weather History Graph

Search for Another Location

Airport or City:

Trip Planner

Search our weather history database for the weather conditions in past years. The results will help you decide how hot, cold, wet, or windy it might be!

Date:

Astronomy

Sep. 17, 2013 Rise Set
Actual Time 7:15 AM CDT 7:30 PM CDT
Civil Twilight 6:51 AM CDT 7:54 PM CDT
Nautical Twilight 6:24 AM CDT 8:21 PM CDT
Astronomical Twilight 5:56 AM CDT 8:49 PM CDT
Moon 6:14 PM CDT (9/17) 5:18 AM CDT (9/17)
Length of Visible Light 13h 02m
Length of Day
12h 15m
Waxing Gibbous, 96% of the Moon is Illuminated
Sep 17
Waxing Gibbous
Sep 19
Full
Sep 26
Last Quarter
Oct 4
New
Oct 11
First Quarter

Hourly Weather History & Observations

Time (CDT) Temp. Heat Index Dew Point Humidity Pressure Visibility Wind Dir Wind Speed Gust Speed Precip Events Conditions
12:15 AM 82.4 °F 92.4 °F 79.0 °F 89% 29.97 in 10.0 mi East 9.2 mph - N/A   Clear
12:35 AM 82.6 °F 93.0 °F 79.2 °F 89% 29.96 in 10.0 mi East 10.4 mph - N/A   Clear
12:55 AM 82.8 °F 93.6 °F 79.3 °F 89% 29.96 in 10.0 mi East 8.1 mph - N/A   Clear
1:15 AM 82.6 °F 93.7 °F 79.7 °F 91% 29.96 in 10.0 mi East 4.6 mph - N/A   Clear
1:35 AM 82.4 °F 93.1 °F 79.7 °F 91% 29.96 in 10.0 mi East 5.8 mph - N/A   Clear
1:55 AM 82.6 °F 93.7 °F 79.7 °F 91% 29.96 in 10.0 mi East 6.9 mph - N/A   Scattered Clouds
2:15 AM 82.8 °F 93.9 °F 79.5 °F 90% 29.96 in 10.0 mi East 6.9 mph - N/A   Clear
2:35 AM 82.8 °F 93.9 °F 79.5 °F 90% 29.95 in 10.0 mi East 4.6 mph - N/A   Scattered Clouds
2:55 AM 82.8 °F 93.9 °F 79.7 °F 90% 29.95 in 10.0 mi ENE 4.6 mph - N/A   Mostly Cloudy
3:15 AM 82.6 °F 93.7 °F 79.7 °F 91% 29.94 in 10.0 mi ENE 4.6 mph - N/A   Scattered Clouds
3:35 AM 82.0 °F 92.5 °F 79.7 °F 93% 29.94 in 10.0 mi Calm Calm - N/A   Mostly Cloudy
3:55 AM 81.7 °F 91.6 °F 79.7 °F 94% 29.93 in 10.0 mi Calm Calm - N/A   Overcast
4:15 AM 81.1 °F 89.8 °F 79.3 °F 94% 29.93 in 10.0 mi NE 5.8 mph - N/A   Scattered Clouds
4:35 AM 80.1 °F 86.6 °F 78.6 °F 95% 29.92 in 10.0 mi NE 5.8 mph - N/A   Clear
4:55 AM 79.7 °F - 78.3 °F 95% 29.92 in 10.0 mi NE 5.8 mph - N/A   Clear
5:15 AM 79.9 °F - 78.6 °F 96% 29.92 in 10.0 mi ENE 5.8 mph - N/A   Clear
5:35 AM 80.4 °F 87.7 °F 79.0 °F 95% 29.92 in 10.0 mi NE 3.5 mph - N/A   Clear
5:55 AM 80.1 °F 86.7 °F 79.0 °F 96% 29.93 in 10.0 mi East 4.6 mph - N/A   Clear
6:15 AM 81.0 °F 89.7 °F 79.7 °F 96% 29.93 in 10.0 mi ENE 4.6 mph - N/A   Clear
6:35 AM 81.5 °F 91.3 °F 79.9 °F 95% 29.94 in 10.0 mi ENE 4.6 mph - N/A   Clear
6:55 AM 81.1 °F 90.1 °F 79.5 °F 95% 29.94 in 10.0 mi ENE 3.5 mph - N/A   Clear
7:15 AM 80.8 °F 88.9 °F 79.2 °F 95% 29.94 in 10.0 mi ENE 4.6 mph - N/A   Clear
7:35 AM 80.6 °F 88.3 °F 79.2 °F 95% 29.95 in 10.0 mi NE 3.5 mph - N/A   Scattered Clouds
7:55 AM 80.6 °F 88.3 °F 79.2 °F 95% 29.96 in 10.0 mi ENE 3.5 mph - N/A   Clear
8:15 AM 81.1 °F 90.1 °F 79.7 °F 95% 29.97 in 10.0 mi Calm Calm - N/A   Scattered Clouds
8:35 AM 82.8 °F 94.9 °F 80.6 °F 93% 29.97 in 10.0 mi East 9.2 mph - N/A   Mostly Cloudy
8:55 AM 84.9 °F 98.9 °F 80.1 °F 85% 29.97 in 10.0 mi East 6.9 mph - N/A   Scattered Clouds
9:15 AM 86.2 °F 100.4 °F 79.5 °F 80% 29.98 in 10.0 mi East 11.5 mph - N/A   Scattered Clouds
9:35 AM 87.6 °F 101.4 °F 78.4 °F 74% 29.98 in 10.0 mi East 11.5 mph - N/A   Clear
9:55 AM 88.2 °F 101.2 °F 77.9 °F 71% 29.98 in 10.0 mi East 11.5 mph 16.1 mph N/A   Scattered Clouds
10:15 AM 88.3 °F 101.1 °F 77.4 °F 70% 29.99 in 10.0 mi East 12.7 mph 17.3 mph N/A   Scattered Clouds
10:35 AM 87.8 °F 100.2 °F 77.2 °F 71% 29.99 in 10.0 mi East 13.8 mph - N/A   Scattered Clouds
10:55 AM 88.5 °F 101.1 °F 77.2 °F 69% 29.99 in 10.0 mi East 13.8 mph 20.7 mph N/A   Scattered Clouds
11:15 AM 89.8 °F 103.3 °F 77.4 °F 67% 29.99 in 10.0 mi East 15.0 mph 20.7 mph N/A   Scattered Clouds
11:35 AM 90.5 °F 104.0 °F 77.2 °F 65% 29.99 in 10.0 mi East 18.4 mph - N/A   Scattered Clouds
11:55 AM 90.1 °F 103.0 °F 76.8 °F 65% 29.99 in 10.0 mi East 12.7 mph 19.6 mph N/A   Scattered Clouds
12:15 PM 90.3 °F 103.5 °F 77.0 °F 65% 29.98 in 10.0 mi East 16.1 mph 21.9 mph N/A   Mostly Cloudy
12:35 PM 90.5 °F 103.4 °F 77.0 °F 64% 29.98 in 10.0 mi East 13.8 mph 23.0 mph N/A   Scattered Clouds
12:55 PM 89.2 °F 101.2 °F 76.6 °F 66% 29.97 in 10.0 mi ESE 13.8 mph 23.0 mph N/A   Scattered Clouds
1:15 PM 90.3 °F 102.3 °F 76.1 °F 63% 29.96 in 10.0 mi ESE 13.8 mph 23.0 mph N/A   Scattered Clouds
1:35 PM 90.1 °F 101.8 °F 76.1 °F 63% 29.95 in 10.0 mi East 15.0 mph 24.2 mph N/A   Scattered Clouds
1:55 PM 89.6 °F 101.0 °F 75.9 °F 64% 29.94 in 10.0 mi East 17.3 mph 25.3 mph N/A   Scattered Clouds
2:15 PM 90.1 °F 101.2 °F 75.4 °F 62% 29.94 in 10.0 mi East 18.4 mph 24.2 mph N/A   Scattered Clouds
2:35 PM 90.1 °F 101.2 °F 75.6 °F 62% 29.94 in 10.0 mi East 17.3 mph 23.0 mph N/A   Mostly Cloudy
2:55 PM 89.6 °F 100.4 °F 75.6 °F 63% 29.93 in 10.0 mi East 17.3 mph 24.2 mph N/A   Scattered Clouds
3:15 PM 89.4 °F 101.1 °F 76.3 °F 65% 29.92 in 10.0 mi East 16.1 mph 20.7 mph N/A   Mostly Cloudy
3:35 PM 88.2 °F 99.5 °F 76.3 °F 68% 29.92 in 10.0 mi East 18.4 mph 25.3 mph N/A   Scattered Clouds
3:55 PM 88.7 °F 99.8 °F 76.1 °F 66% 29.92 in 10.0 mi East 17.3 mph 21.9 mph N/A   Scattered Clouds
4:15 PM 88.5 °F 99.4 °F 75.9 °F 66% 29.91 in 10.0 mi East 17.3 mph 21.9 mph N/A   Scattered Clouds
4:35 PM 87.6 °F 97.6 °F 75.6 °F 67% 29.91 in 10.0 mi East 18.4 mph 21.9 mph N/A   Scattered Clouds
4:55 PM 87.6 °F 97.1 °F 75.0 °F 66% 29.91 in 10.0 mi East 13.8 mph 20.7 mph N/A   Scattered Clouds
5:15 PM 88.9 °F 99.7 °F 75.6 °F 65% 29.91 in 10.0 mi ESE 15.0 mph 21.9 mph N/A   Scattered Clouds
5:35 PM 84.6 °F 93.2 °F 75.6 °F 74% 29.91 in 10.0 mi ESE 6.9 mph - 0.02 in   Scattered Clouds
5:55 PM 83.1 °F 93.3 °F 78.3 °F 85% 29.91 in 10.0 mi ESE 9.2 mph - 0.02 in   Clear
6:15 PM 83.1 °F 91.6 °F 76.3 °F 80% 29.91 in 10.0 mi ESE 11.5 mph - N/A   Scattered Clouds
6:35 PM 81.7 °F 88.7 °F 76.1 °F 83% 29.91 in 10.0 mi ESE 9.2 mph - N/A   Clear
6:55 PM 82.2 °F 91.0 °F 77.7 °F 86% 29.91 in 10.0 mi ESE 10.4 mph - N/A   Clear
7:15 PM 82.6 °F 90.5 °F 76.1 °F 81% 29.91 in 10.0 mi ESE 9.2 mph - N/A   Clear
7:35 PM 82.8 °F 90.4 °F 75.7 °F 79% 29.92 in 10.0 mi East 6.9 mph - N/A   Clear
7:55 PM 82.9 °F 91.2 °F 76.1 °F 80% 29.92 in 10.0 mi East 9.2 mph - N/A   Clear
8:15 PM 83.1 °F 91.3 °F 75.9 °F 79% 29.92 in 10.0 mi East 9.2 mph - N/A   Clear
8:35 PM 82.8 °F 90.1 °F 75.4 °F 78% 29.92 in 10.0 mi East 8.1 mph - N/A   Clear
8:55 PM 83.1 °F 91.3 °F 76.1 °F 79% 29.93 in 10.0 mi Calm Calm - N/A   Mostly Cloudy
9:15 PM 82.8 °F 91.0 °F 76.3 °F 81% 29.94 in 10.0 mi East 6.9 mph - N/A   Scattered Clouds
9:35 PM 83.3 °F 91.8 °F 76.1 °F 79% 29.94 in 10.0 mi ESE 8.1 mph - N/A   Clear
9:55 PM 83.1 °F 91.0 °F 75.7 °F 78% 29.94 in 10.0 mi East 8.1 mph - N/A   Clear
10:15 PM 82.9 °F 90.8 °F 75.9 °F 79% 29.95 in 10.0 mi ESE 8.1 mph - N/A   Clear
10:35 PM 83.1 °F 91.0 °F 75.7 °F 78% 29.95 in 10.0 mi East 8.1 mph - N/A   Scattered Clouds
10:55 PM 82.6 °F 89.7 °F 75.2 °F 78% 29.95 in 10.0 mi East 5.8 mph - N/A   Scattered Clouds
11:15 PM 82.6 °F 90.5 °F 76.1 °F 81% 29.95 in 10.0 mi East 8.1 mph - N/A   Scattered Clouds
11:35 PM 83.3 °F 91.8 °F 76.3 °F 79% 29.95 in 10.0 mi East 6.9 mph - N/A   Clear
11:55 PM 83.3 °F 92.1 °F 76.5 °F 80% 29.96 in 10.0 mi East 5.8 mph - N/A   Scattered Clouds